Regional Weather Roundup
Issued by NWS

Home | Current Version | Previous Version | Graphics & Text | Print | Product List | Glossary On
Versions: 1 2 3 4 5 6 7 8 9 10 11 12 13 14 15 16 17 18 19 20 21 22 23 24 25 26 27 28 29 30 31 32 33 34 35 36 37 38 39 40 41 42 43 44 45 46 47 48 49 50
000
ASUS43 KLMK 172310
RWRKY
KENTUCKY REGIONAL WEATHER ROUNDUP
NATIONAL WEATHER SERVICE LOUISVILLE KY
600 PM EST WED DEC 17 2014

NOTE "FAIR" INDICATES FEW OR NO CLOUDS BELOW 12,000 FEET
WITH NO SIGNIFICANT WEATHER AND/OR OBSTRUCTIONS TO VISIBILITY.

KYZ001>023-026-027-061>063-070>075-180000-
WESTERN AND SOUTH CENTRAL KENTUCKY

CITY           SKY/WX    TMP DP  RH WIND       PRES   REMARKS
PADUCAH        PTCLDY    37  26  64 NW5       30.29R WCI  33
HENDERSON      PTCLDY    34  25  69 CALM      30.28S
OWENSBORO      CLOUDY    34  27  76 NW8       30.29F WCI  27
HOPKINSVILLE   MOCLDY    38  27  65 N5        30.26S WCI  34
BOWLING GREEN  MOCLDY    39  25  57 NW3       30.26S
GLASGOW        MOCLDY    35  27  70 CALM      30.24F
$$

KYZ024-025-028>034-038-045-046-053-180000-
NORTH CENTRAL KENTUCKY

CITY           SKY/WX    TMP DP  RH WIND       PRES   REMARKS
LOUISVILLE/SDF CLOUDY    34  24  67 NW10      30.26F WCI  26
LOUISVILLE/LOU CLOUDY    34  24  67 NW8       30.27F WCI  27
FORT KNOX      CLOUDY    32  25  74 NW5       30.24F WCI  28
$$

KYZ035>037-039>044-047>052-055>060-089>105-180000-
NORTHEAST KENTUCKY

CITY           SKY/WX    TMP DP  RH WIND       PRES   REMARKS
LEXINGTON      CLOUDY    32  26  78 NW5       30.23S WCI  27
COVINGTON      CLOUDY    30  21  69 W8        30.24R WCI  22
FRANKFORT      CLOUDY    33  24  69 NW8       30.25R WCI  26
$$

KYZ054-064>069-076>088-106>120-180000-
SOUTHEAST KENTUCKY

CITY           SKY/WX    TMP DP  RH WIND       PRES   REMARKS
JACKSON        CLEAR     33  26  75 NW6       30.19R WCI  28
LONDON         PTCLDY    35  27  72 W7        30.22R WCI  29
SOMERSET       PTCLDY    32  27  80 CALM      30.25R
MIDDLESBORO    MOCLDY    38  32  78 CALM      30.20R
MONTICELLO     MOCLDY    33  29  86 CALM      30.26R
$$



USA.gov is the U.S. government's official web portal to all federal, state and local government web resources and services.